     2              OBSERVATION DATA    GPS                 RINEX VERSION / TYPE
teqc 1997Jul24 19970814                                     PGM / RUN BY / DATE
                                                            COMMENT
Original Marker Name: 0804                                  COMMENT
Campaign Name: HPGN 1991                                    COMMENT
4-Character Station Name: 0804                              COMMENT
6-Character Antenna Code: TRMSST                            COMMENT
Vertical Measurement Point: BPA                             COMMENT
Vertical Offset to Rinex Ref. Point: 0.0000                 COMMENT
Radial Measurement Point: RRP                               COMMENT
Radial Offset to Rinex Ref. Point: 0.0000                   COMMENT
Antenna Height from Field Measurement: 2.2200 m             COMMENT
Original XYZ: -2376010.4822 -4667037.4967 3629490.1186      COMMENT
New XYZ position is based on association with SCEC monument COMMENT
E1F2P0X2+0011. Position of that monument is believed to be  COMMENT
valid to within 1 m horizontally; vertical accuracy         COMMENT
should be no worse than 3-times this value.                 COMMENT
                                                            COMMENT
Revised Rinex header created by UCSD GPS archive for        COMMENT
GSAC on 19-Apr-1999 (1999:109) 04:46:03 GMT                 COMMENT
For assistance contact dagnew@ucsd.edu or hjohnson@ucsd.edu COMMENT
                                                            COMMENT
HPGN 08-4 GPS SOAP 1990                                     MARKER NAME
unknown NATIONAL GEODETIC SURVEY                            OBSERVER / AGENCY
484 TRIMBLE 4000 SST NP 4.30 / SP 4.20                      REC # / TYPE / VERS
18 TR 4000SST L1/L2 GEO                                     ANT # / TYPE
 -2376019.0000 -4667070.0000  3629502.0000                  APPROX POSITION XYZ
        2.2200        0.0000        0.0000                  ANTENNA: DELTA H/E/N
     1     1     0                                          WAVELENGTH FACT L1/2
     3    C1    L1    L2                                    # / TYPES OF OBSERV
     0                                                      INTERVAL
  1991     4    23     2     2   15.000000                  TIME OF FIRST OBS
  1991     4    23     2    14    0.000000                  TIME OF LAST OBS
     0                                                      # OF SATELLITES
                                                            END OF HEADER
 91  4 23  2  2 15.0000000  0  4G13G 6G12G 2
  21093013.281          -0.65918
  23349876.883          -0.08815
  21836874.2894         -0.54157
  23668930.5784         -0.39355
 91  4 23  2  2 30.0000000  0  4G13G 6G12G 2
  21095461.4534      12862.85948        -0.24772
  23358166.6484      43571.28445
  21828628.5474     -43334.13447
  23674006.2814      26669.25045
 91  4 23  2  2 45.0000000  0  4G13G 6G12G 2
  21097922.1644      25795.12848     10076.84062
  23366472.258       87217.238 5        -0.37831
  21820404.0314     -86552.39347        -0.29073
  23679096.766       53396.444 5        -0.24431
 91  4 23  2  3  0.0000000  0  4G13G 6G12G 2
  21100396.1954      38795.33248     20206.86762
  23374792.1644     130937.08945     34066.94561
  21812201.0084    -129655.42647    -33587.04363
  23684188.1024      80180.61945     20870.49961
 91  4 23  2  3 15.0000000  0  4G13G 6G12G 2
  21102879.7274      51849.44248     30378.89762
  23383123.852      174716.751 5     68180.87621
  21804019.2584    -172656.63347    -67094.44763
  23689296.9924     107008.16045     41775.04861
 91  4 23  2  3 30.0000000  0  4G13G 6G12G 2
  21105376.4384      64964.70048     40598.57562
  23391469.3204     218563.38445    102346.97961
  21795856.8444    -215548.27447   -100516.47963
  23694414.0554     133886.62445     62719.28961
 91  4 23  2  3 45.0000000  0  4G13G 6G12G 2
  21107887.4844      78160.92548     50881.34462
  23399827.1094     262496.55745    136580.53461
  21787719.1254    -258310.03647   -133837.30763
  23699542.2274     160835.77945     83718.57161
 91  4 23  2  4  0.0000000  0  4G13G 6G12G 2
  21110409.5234      91414.57848     61208.86662
  23408196.586      306492.843 5    170863.26321
  21779602.039     -300964.751 7   -167074.71923
  23704673.594      187832.416 5    104754.89221
 91  4 23  2  4 15.0000000  0  4G13G 6G12G 2
  21112944.0084     104732.45148     71586.42462
  23416585.1804     350558.79145    205200.26261
  21771507.5784    -343505.20647   -200223.09363
  23709826.4144     214883.43645    125833.57561
 91  4 23  2  4 30.0000000  0  4G13G 6G12G 2
  21115491.1644     118117.15348     82016.06262
  23424985.0234     394697.01845    239593.59161
  21763434.4694    -385928.06047   -233279.83263
  23714981.0314     241991.80245    146956.94661
 91  4 23  2  4 45.0000000  0  4G13G 6G12G 2
  21118049.0634     131558.68948     92489.97562
  23433394.242      438897.614 5    274035.50721
  21755381.5784    -428242.65447   -266252.21063
  23720149.9224     269147.71245    168117.35461
 91  4 23  2  5  0.0000000  0  4G13G 6G12G 2
  21120621.5784     145074.14948    103021.50662
  23441821.9844     483177.45545    308539.19261
  21747353.2734    -470431.34247   -299126.48663
  23725328.5084     296368.52845    189328.33461
 91  4 23  2  5 15.0000000  0  4G13G 6G12G 2
  21123201.8914     158642.01148    113593.86562
  23450258.8204     527515.01245    343087.83961
  21739345.5474    -512515.00847   -331918.91963
  23730517.4774     323632.94045    210573.30461
 91  4 23  2  5 30.0000000  0  4G13G 6G12G 2
  21125792.8284     172255.66448    124201.90062
  23458707.406      571903.620 5    377676.27121
  21731356.2274    -554499.71247   -364634.24263
  23735713.4384     350934.42145    231847.18461
 91  4 23  2  5 45.0000000  0  4G13G 6G12G 2
  21128395.5004     185930.04448    134857.25162
  23467166.266      616358.114 5    412316.04321
  21723389.2814    -596369.98147   -397260.39663
  23740917.1174     378288.29345    253161.85361
 91  4 23  2  6  0.0000000  0  4G13G 6G12G 2
  21131011.2194     199677.12348    145569.25562
  23475638.7114     660890.21845    447016.28661
  21715445.1174    -638113.30347   -429787.62563
  23746138.5004     405706.73845    274526.84661
 91  4 23  2  6 15.0000000  0  4G13G 6G12G 2
  21133637.8284     213478.58048    156323.63062
  23484126.813      705481.952 5    481763.00121
  21707522.9064    -679747.06347   -462229.48563
  23751363.1174     433171.79245    295928.15461
 91  4 23  2  6 30.0000000  0  4G13G 6G12G 2
  21136276.2814     227345.97148    167129.38962
  23492625.6414     750144.71145    516565.04761
  21699623.6644    -721259.23247   -494576.59463
  23756599.6414     460695.16145    317374.93961
 91  4 23  2  6 45.0000000  0  4G13G 6G12G 2
  21138929.2194     241286.71448    177992.30062
  23501137.5234     794885.70645    551428.06561
  21691747.7274    -762641.94747   -526822.83363
  23761850.7664     488284.42145    338873.03561
 91  4 23  2  7  0.0000000  0  4G13G 6G12G 2
  21141595.2034     255296.98248    188909.39062
  23509667.781      839701.021 5    586348.99321
  21683896.3134    -803898.30647   -558970.61263
  23767112.4064     515935.90745    360419.60361
 91  4 23  2  7 15.0000000  0  4G13G 6G12G 2
  21144273.5944     269368.40248    199874.13062
  23518208.0314     884582.35245    621321.36561
  21676068.3054    -845036.08747   -591025.99263
  23772384.3444     543641.57045    382008.40561
 91  4 23  2  7 30.0000000  0  4G13G 6G12G 2
  21146961.8054     283497.48848    210883.79962
  23526760.8054     929526.08745    656342.35061
  21668262.8834    -886058.19747   -622991.23763
  23777667.852      571398.131 5    403636.88021
 91  4 23  2  7 45.0000000  0  4G13G 6G12G 2
  21149661.4844     297681.01548    221935.89562
  23535322.5784     974528.91645    691409.40061
  21660477.7034    -926967.23947   -654868.37963
  23782958.992      599202.588 5    425302.66921
 91  4 23  2  8  0.0000000  0  4G13G 6G12G 2
  21152371.6334     311927.99448    233037.43262
  23543902.0084    1019599.86145    726529.51961
  21652716.2504    -967753.67147   -686649.97863
  23788259.2424     627064.22045    447012.99761
 91  4 23  2  8 15.0000000  0  4G13G 6G12G 2
  21155092.9224     326225.83948    244178.60562
  23552489.3204    1064726.30345    761692.88461
  21644975.9534   -1008429.43847   -718345.34963
  23793570.2734     654970.82045    468758.37161
 91  4 23  2  8 30.0000000  0  4G13G 6G12G 2
  21157828.5314     340604.94048    255383.09462
  23561091.4064    1109938.49145    796923.05361
  21637262.9844   -1048963.56147   -749930.34163
  23798895.6414     682952.83445    490562.49561
 91  4 23  2  8 45.0000000  0  4G13G 6G12G 2
  21160572.1414     355025.16948    266619.62862
  23569704.7814    1155196.21745    832188.70161
  21629570.0554   -1089395.60747   -781435.79563
  23804228.8524     710970.20245    512394.19561
 91  4 23  2  9  0.0000000  0  4G13G 6G12G 2
  21163329.7664     369504.14348    277901.94162
  23578328.6094    1200516.97845    867503.50761
  21621897.3524   -1129707.49047   -812847.61763
  23809567.773      739040.752 5    534267.33021
 91  4 23  2  9 15.0000000  0  4G13G 6G12G 2
  21166093.7734     384039.02248    289227.81762
  23586964.523     1245897.992 5    902865.21521
  21614249.4144   -1169901.35047   -844167.46763
  23814918.188      767162.178 5    556180.09821
 91  4 23  2  9 30.0000000  0  4G13G 6G12G 2
  21168870.1414     398626.43848    300594.63062
  23595609.461     1291335.772 5    938271.18121
  21606620.9614   -1209980.08247   -875397.61463
  23820279.2894     795331.33445    578130.05361
 91  4 23  2  9 45.0000000  0  4G13G 6G12G 2
  21171657.6884     413278.45148    312011.77562
  23604270.9614    1336842.24845    973730.67061
  21599018.7274   -1249931.03947   -906528.19063
  23825653.5004     823560.14245    600126.51461
 91  4 23  2 10  0.0000000  0  4G13G 6G12G 2
  21174458.0234     427988.65248    323474.26262
  23612942.383     1382411.081 5   1009238.75021
  21591440.0944   -1289759.85447   -937563.60063
  23831030.063      851842.688 5    622164.85321
 91  4 23  2 10 15.0000000  0  4G13G 6G12G 2
  21177269.6564     442768.08248    334990.69462
  23621627.3204    1428053.18345   1044803.92061
  21583887.3524   -1329454.94447   -968494.79863
  23836425.6564     880190.16245    644253.75061
 91  4 23  2 10 30.0000000  0  4G13G 6G12G 2
  21180094.5474     457611.38648    346556.89862
  23630327.844     1473763.171 5   1080421.97121
  21576356.7274   -1369021.10747   -999325.54063
  23841834.859      908597.401 5    666389.24121
 91  4 23  2 10 45.0000000  0  4G13G 6G12G 2
  21182929.9694     472510.68548    358166.73362
  23639036.1414    1519532.78145   1116086.50261
  21568851.0704   -1408465.92047  -1030061.71863
  23847249.797      937056.665 5    688565.26721
 91  4 23  2 11  0.0000000  0  4G13G 6G12G 2
  21185774.8834     487460.41248    369815.86562
  23647754.9534    1565356.45345   1151793.15661
  21561367.4844   -1447794.29747  -1060707.17363
  23852673.367      965562.553 5    710777.63121
 91  4 23  2 11 15.0000000  0  4G13G 6G12G 2
  21188628.0164     502452.58048    381498.06262
  23656487.0784    1611226.48045   1187535.91961
  21553903.8984   -1487013.29047  -1091267.39263
  23858107.8134     994107.54745    733020.43861
 91  4 23  2 11 30.0000000  0  4G13G 6G12G 2
  21191488.9534     517489.93548    393215.47362
  23665222.8914    1657145.50445   1223316.86461
  21546462.1024   -1526119.63147  -1121739.83063
  23863544.9844    1022694.56345    755296.00961
 91  4 23  2 11 45.0000000  0  4G13G 6G12G 2
  21194360.5394     532579.12148    404973.27162
  23673971.914     1703119.647 5   1259140.77021
  21539043.2664   -1565106.35947  -1152119.06263
  23868996.867     1051330.377 5    777609.61121
 91  4 23  2 12  0.0000000  0  4G13G 6G12G 2
  21197239.7504     547711.28248    416764.55662
  23682730.9064    1749140.18045   1295000.80461
  21531644.8984   -1603981.75847  -1182411.54563
  23874452.0314    1080006.12045    799954.32061
 91  4 23  2 12 15.0000000  0  4G13G 6G12G 2
  21200132.2814     562910.12148    428607.80062
  23691501.7114    1795230.74545   1330915.42061
  21524274.0084   -1642721.48847  -1212598.31863
  23879918.6174    1108745.91445    822348.93061
 91  4 23  2 12 30.0000000  0  4G13G 6G12G 2
  21203037.1174     578177.22848    440504.23862
  23700284.6804    1841392.78345   1366885.72861
  21516928.4144   -1681323.53747  -1242677.79463
  23885398.4224    1137551.43445    844794.76561
 91  4 23  2 12 45.0000000  0  4G13G 6G12G 2
  21205954.3054     593500.81248    452444.68362
  23709080.055     1887614.689 5   1402902.68721
  21509606.0314   -1719798.71347  -1272658.41763
  23890895.7894    1166411.41245    867283.03361
 91  4 23  2 13  0.0000000  0  4G13G 6G12G 2
  21208879.8284     608877.22948    464426.30262
  23717886.9924    1933892.79645   1438963.44761
  21502308.0864   -1758150.07047  -1302542.55663
  23896394.766     1195322.420 5    889811.07121
 91  4 23  2 13 15.0000000  0  4G13G 6G12G 2
  21211815.6484     624307.59448    476449.95462
  23726703.4614    1980227.98645   1475068.66961
  21495032.9844   -1796376.19447  -1332329.11263
  23901906.555     1224285.522 5    912379.70621
 91  4 23  2 13 30.0000000  0  4G13G 6G12G 2
  21214762.2894     639789.67648    488513.90562
  23735531.141     2026617.932 5   1511216.57321
  21487781.7274   -1834478.64147  -1362019.29663
  23907426.6414    1253298.72645    934987.37361
 91  4 23  2 13 45.0000000  0  4G13G 6G12G 2
  21217722.3834     655341.29948    500632.04962
  23744376.398     2073080.241 5   1547420.84421
  21480559.3204   -1872439.22747  -1391598.94063
  23912963.9694    1282380.11445    957648.15861
